Station History

Weather Underground - logo

Station Historical Data
Daily Summary for July 14, 2017 Units:  English    Metric   Both
« Previous Day
Next Day »
Daily Weekly Monthly Yearly Custom
  High: Low: Average:
Temperature: 99.8 °F 68.0 °F 84.5 °F
Dew Point: 68.5 °F 52.1 °F 63 °F
Humidity: 81 % 21 % 52 %
Wind Speed: 6.9 mph 0.0 mph 1.3 mph
Wind Gust: 6.9 mph - -
Wind:- - SSW
Pressure: 29.94 in 29.83 in -
Precipitation: 0.00 in    
Historical Graphs
 
 
Tabular Data for July 14, 2017
Time Temperature Dew Point Pressure Wind Wind Speed Wind Gust Humidity Rainfall Rate (Hourly)
00:02 78.3 °F 64.7 °F 29.87 in Calm     63 % 0.00 in
00:07 77.9 °F 64.7 °F 29.87 in Calm     64 % 0.00 in
00:12 77.5 °F 64.4 °F 29.87 in Calm     64 % 0.00 in
00:17 77.3 °F 64.6 °F 29.88 in Calm     65 % 0.00 in
00:22 77.1 °F 64.9 °F 29.88 in Calm     66 % 0.00 in
00:27 77.0 °F 64.8 °F 29.87 in Calm     66 % 0.00 in
00:32 76.8 °F 64.6 °F 29.88 in Calm     66 % 0.00 in
00:37 76.6 °F 65.2 °F 29.87 in Calm     68 % 0.00 in
00:42 76.5 °F 65.6 °F 29.88 in Calm     69 % 0.00 in
00:47 76.4 °F 65.5 °F 29.88 in Calm     69 % 0.00 in
00:52 76.2 °F 65.3 °F 29.88 in Calm     69 % 0.00 in
00:57 76.0 °F 65.5 °F 29.88 in Calm     70 % 0.00 in
01:02 75.8 °F 64.5 °F 29.87 in Calm     68 % 0.00 in
01:08 75.8 °F 64.9 °F 29.87 in Calm     69 % 0.00 in
01:13 76.0 °F 64.2 °F 29.87 in Calm     67 % 0.00 in
01:18 76.0 °F 63.4 °F 29.87 in Calm     65 % 0.00 in
01:23 76.0 °F 64.2 °F 29.88 in Calm     67 % 0.00 in
01:28 75.7 °F 64.8 °F 29.88 in Calm     69 % 0.00 in
01:33 75.3 °F 64.4 °F 29.88 in NNE 1.2 mph   69 % 0.00 in
01:38 74.8 °F 64.4 °F 29.88 in Calm     70 % 0.00 in
01:43 74.4 °F 64.0 °F 29.88 in Calm     70 % 0.00 in
01:48 74.2 °F 64.2 °F 29.88 in Calm     71 % 0.00 in
01:53 74.0 °F 64.4 °F 29.87 in Calm     72 % 0.00 in
01:58 73.7 °F 64.5 °F 29.87 in Calm     73 % 0.00 in
02:03 73.2 °F 64.4 °F 29.87 in Calm     74 % 0.00 in
02:08 72.8 °F 64.4 °F 29.87 in Calm     75 % 0.00 in
02:13 72.6 °F 63.8 °F 29.88 in Calm     74 % 0.00 in
02:18 72.4 °F 63.6 °F 29.88 in Calm     74 % 0.00 in
02:23 72.3 °F 63.9 °F 29.87 in Calm     75 % 0.00 in
02:28 72.2 °F 63.8 °F 29.88 in Calm     75 % 0.00 in
02:33 72.0 °F 63.6 °F 29.88 in NNE 1.2 mph   75 % 0.00 in
02:38 71.9 °F 63.5 °F 29.88 in Calm     75 % 0.00 in
02:43 71.8 °F 63.4 °F 29.88 in Calm     75 % 0.00 in
02:48 71.7 °F 63.4 °F 29.88 in NNE 1.2 mph   75 % 0.00 in
02:53 71.6 °F 63.6 °F 29.88 in NNE 1.2 mph   76 % 0.00 in
02:58 71.3 °F 63.7 °F 29.88 in Calm     77 % 0.00 in
03:03 71.1 °F 63.5 °F 29.88 in NNE 1.2 mph 1.2 mph 77 % 0.00 in
03:08 70.9 °F 63.3 °F 29.88 in Calm     77 % 0.00 in
03:13 70.8 °F 63.6 °F 29.88 in NNE 1.2 mph   78 % 0.00 in
03:18 70.7 °F 63.5 °F 29.88 in Calm     78 % 0.00 in
03:23 70.5 °F 63.7 °F 29.88 in NNE 1.0 mph 1.0 mph 79 % 0.00 in
03:28 70.4 °F 63.6 °F 29.88 in NNE 1.2 mph   79 % 0.00 in
03:33 70.3 °F 63.5 °F 29.88 in Calm     79 % 0.00 in
03:38 70.3 °F 63.5 °F 29.88 in Calm   0.1 mph 79 % 0.00 in
03:43 70.2 °F 63.4 °F 29.88 in NNE 1.2 mph 1.2 mph 79 % 0.00 in
03:48 70.2 °F 63.4 °F 29.88 in NNE 1.2 mph   79 % 0.00 in
03:53 70.1 °F 63.3 °F 29.88 in Calm     79 % 0.00 in
03:58 69.9 °F 63.4 °F 29.88 in Calm     80 % 0.00 in
04:03 69.7 °F 62.9 °F 29.88 in NNE 1.2 mph   79 % 0.00 in
04:08 69.7 °F 62.9 °F 29.88 in Calm     79 % 0.00 in
04:14 69.6 °F 62.8 °F 29.88 in Calm     79 % 0.00 in
04:19 69.6 °F 62.8 °F 29.88 in Calm     79 % 0.00 in
04:24 69.6 °F 62.8 °F 29.88 in Calm     79 % 0.00 in
04:29 69.6 °F 63.2 °F 29.88 in Calm     80 % 0.00 in
04:34 69.5 °F 63.1 °F 29.88 in Calm     80 % 0.00 in
04:39 69.4 °F 63.0 °F 29.89 in Calm     80 % 0.00 in
04:44 69.3 °F 62.9 °F 29.89 in Calm     80 % 0.00 in
04:49 69.2 °F 62.8 °F 29.89 in Calm     80 % 0.00 in
04:54 69.1 °F 62.7 °F 29.89 in Calm     80 % 0.00 in
04:59 69.1 °F 62.7 °F 29.89 in Calm     80 % 0.00 in
05:04 69.1 °F 62.7 °F 29.89 in Calm     80 % 0.00 in
05:09 69.0 °F 62.6 °F 29.89 in Calm     80 % 0.00 in
05:14 68.9 °F 62.5 °F 29.89 in NNE 1.2 mph   80 % 0.00 in
05:19 68.8 °F 62.4 °F 29.89 in NNE 1.2 mph 1.2 mph 80 % 0.00 in
05:24 68.6 °F 62.2 °F 29.89 in NNE 1.0 mph 1.0 mph 80 % 0.00 in
05:29 68.5 °F 62.4 °F 29.90 in NNE 1.0 mph 1.0 mph 81 % 0.00 in
05:34 68.4 °F 62.3 °F 29.90 in NNE 1.2 mph 1.2 mph 81 % 0.00 in
05:39 68.4 °F 62.3 °F 29.90 in Calm     81 % 0.00 in
05:44 68.2 °F 61.8 °F 29.90 in Calm     80 % 0.00 in
05:49 68.2 °F 61.8 °F 29.90 in Calm     80 % 0.00 in
05:54 68.2 °F 61.8 °F 29.90 in Calm     80 % 0.00 in
05:59 68.3 °F 61.5 °F 29.91 in Calm     79 % 0.00 in
06:04 68.2 °F 61.8 °F 29.91 in Calm     80 % 0.00 in
06:09 68.1 °F 61.7 °F 29.91 in Calm     80 % 0.00 in
06:14 68.0 °F 61.6 °F 29.91 in NNE 1.2 mph   80 % 0.00 in
06:19 68.1 °F 61.7 °F 29.91 in NNE 1.2 mph   80 % 0.00 in
06:24 68.3 °F 61.5 °F 29.91 in Calm     79 % 0.00 in
06:29 68.5 °F 61.7 °F 29.91 in Calm     79 % 0.00 in
06:34 68.6 °F 61.5 °F 29.91 in Calm     78 % 0.00 in
06:39 69.0 °F 61.5 °F 29.92 in NNE 1.2 mph   77 % 0.00 in
06:44 69.3 °F 61.8 °F 29.92 in Calm     77 % 0.00 in
06:49 69.7 °F 61.8 °F 29.92 in NNE 1.2 mph   76 % 0.00 in
06:54 70.3 °F 62.0 °F 29.92 in Calm     75 % 0.00 in
06:59 71.3 °F 62.2 °F 29.92 in Calm   0.1 mph 73 % 0.00 in
07:05 72.0 °F 62.1 °F 29.92 in Calm     71 % 0.00 in
07:10 72.7 °F 61.9 °F 29.92 in SE 1.2 mph 1.2 mph 69 % 0.00 in
07:15 73.1 °F 61.9 °F 29.92 in Calm     68 % 0.00 in
07:20 73.5 °F 61.9 °F 29.92 in SE 3.5 mph 3.5 mph 67 % 0.00 in
07:25 73.9 °F 61.8 °F 29.92 in Calm     66 % 0.00 in
07:30 74.3 °F 61.8 °F 29.93 in SE 1.2 mph 1.2 mph 65 % 0.00 in
07:35 74.9 °F 62.3 °F 29.93 in Calm     65 % 0.00 in
07:40 75.5 °F 62.0 °F 29.93 in East 3.5 mph 3.5 mph 63 % 0.00 in
07:45 75.7 °F 61.8 °F 29.93 in SE 1.2 mph 1.2 mph 62 % 0.00 in
07:50 76.1 °F 61.7 °F 29.93 in SSE 2.3 mph 2.3 mph 61 % 0.00 in
07:55 76.5 °F 61.6 °F 29.93 in ENE 2.3 mph 2.3 mph 60 % 0.00 in
08:00 76.8 °F 62.3 °F 29.93 in Calm     61 % 0.00 in
08:05 77.4 °F 62.9 °F 29.93 in East 1.2 mph 1.2 mph 61 % 0.00 in
08:10 77.9 °F 62.4 °F 29.93 in SE 1.0 mph   59 % 0.00 in
08:15 78.5 °F 63.0 °F 29.93 in SSE 1.2 mph   59 % 0.00 in
08:20 78.9 °F 62.9 °F 29.93 in SSE 1.2 mph 1.2 mph 58 % 0.00 in
08:25 79.2 °F 62.7 °F 29.93 in SSE 1.2 mph 1.2 mph 57 % 0.00 in
08:26 79.3 °F 62.7 °F 29.93 in SSE 2.0 mph 2.0 mph 57 % 0.00 in
08:31 79.5 °F 62.9 °F 29.94 in East 3.5 mph 3.5 mph 57 % 0.00 in
08:36 79.6 °F 63.0 °F 29.94 in ESE 3.5 mph 3.5 mph 57 % 0.00 in
08:41 80.2 °F 63.6 °F 29.94 in ESE 2.3 mph 2.3 mph 57 % 0.00 in
08:46 80.6 °F 63.5 °F 29.93 in ESE 1.2 mph 1.2 mph 56 % 0.00 in
08:51 80.8 °F 63.1 °F 29.93 in East 2.3 mph 2.3 mph 55 % 0.00 in
08:56 81.1 °F 64.9 °F 29.93 in East 1.2 mph   58 % 0.00 in
08:57 81.3 °F 64.1 °F 29.93 in ESE 1.2 mph 1.2 mph 56 % 0.00 in
09:02 81.8 °F 64.1 °F 29.93 in SSW 1.2 mph 1.2 mph 55 % 0.00 in
09:07 82.3 °F 62.9 °F 29.93 in SE 3.5 mph 3.5 mph 52 % 0.00 in
09:12 82.6 °F 63.7 °F 29.93 in SSE 2.3 mph 2.3 mph 53 % 0.00 in
09:18 83.2 °F 63.7 °F 29.93 in ESE 2.3 mph 2.3 mph 52 % 0.00 in
09:23 83.8 °F 63.2 °F 29.93 in SSE 2.3 mph 2.3 mph 50 % 0.00 in
09:28 84.2 °F 64.1 °F 29.93 in ESE 1.2 mph 1.2 mph 51 % 0.00 in
09:33 84.5 °F 63.8 °F 29.93 in Calm     50 % 0.00 in
09:38 84.9 °F 63.0 °F 29.93 in South 4.6 mph 4.6 mph 48 % 0.00 in
09:43 84.9 °F 64.2 °F 29.93 in Calm     50 % 0.00 in
09:48 85.2 °F 64.5 °F 29.93 in WSW 1.2 mph 1.2 mph 50 % 0.00 in
09:53 85.0 °F 64.8 °F 29.93 in NW 1.2 mph   51 % 0.00 in
09:58 85.4 °F 65.8 °F 29.93 in NE 1.2 mph 1.2 mph 52 % 0.00 in
10:03 85.7 °F 65.5 °F 29.93 in Calm     51 % 0.00 in
10:08 86.2 °F 64.2 °F 29.93 in NNE 1.2 mph 1.2 mph 48 % 0.00 in
10:13 86.2 °F 63.6 °F 29.93 in NW 2.3 mph 2.3 mph 47 % 0.00 in
10:18 86.1 °F 65.3 °F 29.93 in East 2.3 mph 2.3 mph 50 % 0.00 in
10:23 86.4 °F 65.0 °F 29.93 in SSE 3.5 mph 3.5 mph 49 % 0.00 in
10:28 86.9 °F 65.4 °F 29.93 in ESE 1.2 mph   49 % 0.00 in
10:33 86.9 °F 65.4 °F 29.93 in SSE 2.3 mph 2.3 mph 49 % 0.00 in
10:38 86.9 °F 63.6 °F 29.93 in NW 2.3 mph 2.3 mph 46 % 0.00 in
10:43 86.9 °F 64.2 °F 29.94 in NNW 2.3 mph 2.3 mph 47 % 0.00 in
10:48 87.0 °F 64.3 °F 29.94 in North 2.3 mph 2.3 mph 47 % 0.00 in
10:53 87.3 °F 65.8 °F 29.94 in SE 2.3 mph 2.3 mph 49 % 0.00 in
10:58 88.1 °F 65.3 °F 29.94 in West 1.2 mph 1.2 mph 47 % 0.00 in
11:04 88.5 °F 64.4 °F 29.94 in NNE 1.2 mph 1.2 mph 45 % 0.00 in
11:09 88.5 °F 65.7 °F 29.94 in SSE 1.2 mph 1.2 mph 47 % 0.00 in
11:14 88.7 °F 65.9 °F 29.94 in ESE 1.0 mph   47 % 0.00 in
11:19 89.2 °F 65.1 °F 29.94 in SE 1.2 mph 1.2 mph 45 % 0.00 in
11:24 89.6 °F 64.8 °F 29.94 in SW 2.3 mph 2.3 mph 44 % 0.00 in
11:29 89.9 °F 64.4 °F 29.93 in NW 3.5 mph 3.5 mph 43 % 0.00 in
11:34 89.8 °F 66.3 °F 29.93 in ENE 2.3 mph 2.3 mph 46 % 0.00 in
11:39 90.2 °F 65.3 °F 29.93 in SE 3.5 mph 3.5 mph 44 % 0.00 in
11:44 90.3 °F 64.1 °F 29.93 in West 1.2 mph 1.2 mph 42 % 0.00 in
11:49 90.3 °F 64.8 °F 29.93 in East 1.2 mph 1.2 mph 43 % 0.00 in
11:54 90.6 °F 62.3 °F 29.93 in NW 2.3 mph 2.3 mph 39 % 0.00 in
11:59 90.8 °F 64.5 °F 29.93 in SSE 2.3 mph 2.3 mph 42 % 0.00 in
12:04 91.2 °F 66.2 °F 29.93 in East 1.2 mph 1.2 mph 44 % 0.00 in
12:09 91.7 °F 64.0 °F 29.93 in North 3.5 mph 3.5 mph 40 % 0.00 in
12:14 91.8 °F 64.7 °F 29.93 in SE 2.0 mph 2.0 mph 41 % 0.00 in
12:15 91.9 °F 64.8 °F 29.93 in SSE 1.2 mph 1.2 mph 41 % 0.00 in
12:20 92.2 °F 64.4 °F 29.93 in NW 2.3 mph 2.3 mph 40 % 0.00 in
12:25 91.9 °F 66.2 °F 29.92 in Calm     43 % 0.00 in
12:30 92.3 °F 64.5 °F 29.93 in NNW 2.3 mph 2.3 mph 40 % 0.00 in
12:35 92.4 °F 65.3 °F 29.92 in SE 1.2 mph 1.2 mph 41 % 0.00 in
12:40 92.5 °F 63.2 °F 29.92 in WNW 2.3 mph 2.3 mph 38 % 0.00 in
12:45 92.2 °F 65.1 °F 29.92 in SSE 1.2 mph 1.2 mph 41 % 0.00 in
12:50 92.6 °F 63.3 °F 29.92 in NW 1.2 mph 1.2 mph 38 % 0.00 in
12:55 92.8 °F 66.3 °F 29.92 in East 1.2 mph 1.2 mph 42 % 0.00 in
13:00 93.3 °F 64.7 °F 29.92 in Calm     39 % 0.00 in
13:05 93.7 °F 68.5 °F 29.91 in SE 1.2 mph 1.2 mph 44 % 0.00 in
13:10 94.2 °F 64.7 °F 29.91 in West 1.2 mph 1.2 mph 38 % 0.00 in
13:13 94.3 °F 66.3 °F 29.91 in ENE 3.0 mph 3.0 mph 40 % 0.00 in
13:18 94.4 °F 67.8 °F 29.91 in WNW 2.3 mph 2.3 mph 42 % 0.00 in
13:23 94.7 °F 65.1 °F 29.91 in WNW 3.5 mph 3.5 mph 38 % 0.00 in
13:28 95.0 °F 63.1 °F 29.91 in NNW 2.3 mph 2.3 mph 35 % 0.00 in
13:33 95.4 °F 62.6 °F 29.91 in NNW 2.3 mph 2.3 mph 34 % 0.00 in
13:38 95.0 °F 63.9 °F 29.91 in NNW 2.3 mph 2.3 mph 36 % 0.00 in
13:43 95.4 °F 65.8 °F 29.91 in NW 1.2 mph 1.2 mph 38 % 0.00 in
13:48 95.9 °F 67.0 °F 29.91 in SSE 3.5 mph 3.5 mph 39 % 0.00 in
13:53 96.4 °F 64.3 °F 29.91 in West 1.0 mph 1.0 mph 35 % 0.00 in
13:58 96.9 °F 63.9 °F 29.91 in NW 1.2 mph 1.2 mph 34 % 0.00 in
14:03 97.1 °F 62.3 °F 29.90 in NNW 3.5 mph 3.5 mph 32 % 0.00 in
14:08 97.3 °F 65.1 °F 29.90 in NW 2.3 mph 2.3 mph 35 % 0.00 in
14:13 97.7 °F 64.6 °F 29.90 in NW 3.5 mph 3.5 mph 34 % 0.00 in
14:18 98.1 °F 63.2 °F 29.90 in NW 3.5 mph 3.5 mph 32 % 0.00 in
14:23 98.0 °F 64.9 °F 29.90 in NW 2.0 mph 2.0 mph 34 % 0.00 in
14:28 97.6 °F 63.6 °F 29.90 in NW 1.2 mph 1.2 mph 33 % 0.00 in
14:33 97.6 °F 60.0 °F 29.90 in NNE 3.5 mph 3.5 mph 29 % 0.00 in
14:38 97.7 °F 62.9 °F 29.89 in NW 3.5 mph 3.5 mph 32 % 0.00 in
14:40 97.7 °F 62.9 °F 29.89 in NE 2.3 mph 2.3 mph 32 % 0.00 in
14:45 98.2 °F 65.0 °F 29.89 in NW 4.0 mph 4.0 mph 34 % 0.00 in
14:50 98.2 °F 59.5 °F 29.89 in NW 3.5 mph 3.5 mph 28 % 0.00 in
14:55 98.2 °F 60.5 °F 29.89 in NW 3.5 mph 3.5 mph 29 % 0.00 in
15:00 98.5 °F 60.8 °F 29.89 in NW 4.0 mph 4.0 mph 29 % 0.00 in
15:05 98.8 °F 62.0 °F 29.89 in NW 3.5 mph 3.5 mph 30 % 0.00 in
15:10 98.6 °F 61.8 °F 29.88 in NW 3.5 mph 3.5 mph 30 % 0.00 in
15:15 98.5 °F 60.8 °F 29.88 in NW 3.5 mph 3.5 mph 29 % 0.00 in
15:20 98.4 °F 60.7 °F 29.88 in North 6.0 mph 6.0 mph 29 % 0.00 in
15:25 98.4 °F 59.7 °F 29.88 in NW 3.5 mph 3.5 mph 28 % 0.00 in
15:30 98.6 °F 59.9 °F 29.88 in North 4.0 mph 4.0 mph 28 % 0.00 in
15:35 98.7 °F 58.9 °F 29.88 in NNW 3.5 mph 3.5 mph 27 % 0.00 in
15:40 98.8 °F 60.0 °F 29.88 in WNW 6.9 mph 6.9 mph 28 % 0.00 in
15:45 98.9 °F 59.1 °F 29.88 in North 2.0 mph 2.0 mph 27 % 0.00 in
15:50 99.0 °F 58.1 °F 29.87 in WNW 2.3 mph 2.3 mph 26 % 0.00 in
15:55 99.1 °F 58.2 °F 29.87 in WNW 2.0 mph 2.0 mph 26 % 0.00 in
16:00 99.1 °F 57.1 °F 29.87 in WNW 3.5 mph 3.5 mph 25 % 0.00 in
16:05 99.1 °F 56.0 °F 29.87 in NW 3.5 mph 3.5 mph 24 % 0.00 in
16:10 98.8 °F 52.1 °F 29.87 in NW 2.3 mph 2.3 mph 21 % 0.00 in
16:15 98.9 °F 55.8 °F 29.87 in NW 2.3 mph 2.3 mph 24 % 0.00 in
16:20 99.4 °F 56.2 °F 29.87 in WNW 2.0 mph 2.0 mph 24 % 0.00 in
16:25 99.5 °F 55.1 °F 29.87 in NW 2.3 mph 2.3 mph 23 % 0.00 in
16:30 99.3 °F 56.1 °F 29.86 in WNW 3.5 mph 3.5 mph 24 % 0.00 in
16:33 99.2 °F 57.2 °F 29.86 in NW 3.5 mph 3.5 mph 25 % 0.00 in
16:38 99.4 °F 56.2 °F 29.86 in West 2.3 mph 2.3 mph 24 % 0.00 in
16:43 99.4 °F 57.4 °F 29.86 in North 3.5 mph 3.5 mph 25 % 0.00 in
16:48 99.4 °F 57.4 °F 29.86 in NW 3.5 mph 3.5 mph 25 % 0.00 in
16:53 99.6 °F 57.5 °F 29.86 in NW 3.5 mph 3.5 mph 25 % 0.00 in
16:58 99.6 °F 55.2 °F 29.86 in WNW 2.3 mph 2.3 mph 23 % 0.00 in
17:03 99.8 °F 57.7 °F 29.85 in North 3.5 mph 3.5 mph 25 % 0.00 in
17:08 99.8 °F 56.6 °F 29.85 in North 3.5 mph 3.5 mph 24 % 0.00 in
17:13 99.7 °F 56.5 °F 29.85 in NW 3.5 mph 3.5 mph 24 % 0.00 in
17:18 99.8 °F 57.7 °F 29.85 in NW 2.3 mph 2.3 mph 25 % 0.00 in
17:23 99.6 °F 56.4 °F 29.84 in WNW 3.5 mph 3.5 mph 24 % 0.00 in
17:28 99.6 °F 58.6 °F 29.84 in NW 3.5 mph 3.5 mph 26 % 0.00 in
17:33 99.6 °F 57.5 °F 29.84 in NW 3.5 mph 3.5 mph 25 % 0.00 in
17:38 99.7 °F 57.6 °F 29.84 in NW 3.5 mph 3.5 mph 25 % 0.00 in
17:43 99.8 °F 58.8 °F 29.83 in NW 1.2 mph 1.4 mph 26 % 0.00 in
17:48 99.7 °F 59.8 °F 29.83 in NW 4.6 mph 4.6 mph 27 % 0.00 in
17:53 99.6 °F 59.7 °F 29.83 in NW 3.5 mph 3.5 mph 27 % 0.00 in
17:58 99.4 °F 60.5 °F 29.83 in NW 3.5 mph 3.5 mph 28 % 0.00 in
18:03 99.1 °F 60.3 °F 29.83 in NW 2.3 mph 2.3 mph 28 % 0.00 in
18:08 99.2 °F 62.3 °F 29.83 in NNE 2.3 mph 2.3 mph 30 % 0.00 in
18:11 99.3 °F 61.4 °F 29.83 in NW 2.3 mph 2.3 mph 29 % 0.00 in
18:16 99.3 °F 61.4 °F 29.83 in NW 2.3 mph 2.3 mph 29 % 0.00 in
18:21 99.2 °F 62.3 °F 29.83 in WNW 1.2 mph 1.2 mph 30 % 0.00 in
18:26 99.1 °F 62.2 °F 29.83 in NW 3.5 mph 3.5 mph 30 % 0.00 in
18:31 98.7 °F 61.9 °F 29.83 in NW 2.3 mph 2.3 mph 30 % 0.00 in
18:36 98.5 °F 60.8 °F 29.83 in WNW 2.3 mph 2.3 mph 29 % 0.00 in
18:41 98.5 °F 59.8 °F 29.83 in NW 3.5 mph 3.5 mph 28 % 0.00 in
18:46 98.4 °F 59.7 °F 29.83 in NNE 2.0 mph 2.0 mph 28 % 0.00 in
18:51 98.4 °F 61.6 °F 29.83 in WNW 1.2 mph 1.2 mph 30 % 0.00 in
18:56 98.3 °F 62.5 °F 29.83 in WNW 1.2 mph 1.2 mph 31 % 0.00 in
19:01 97.8 °F 62.9 °F 29.83 in SE 1.2 mph   32 % 0.00 in
19:07 97.2 °F 62.4 °F 29.83 in NW 1.2 mph   32 % 0.00 in
19:12 96.7 °F 61.1 °F 29.83 in WNW 1.2 mph 1.2 mph 31 % 0.00 in
19:17 96.7 °F 62.9 °F 29.83 in WNW 1.2 mph 1.2 mph 33 % 0.00 in
19:22 96.2 °F 62.4 °F 29.83 in Calm     33 % 0.00 in
19:27 95.4 °F 62.6 °F 29.83 in Calm     34 % 0.00 in
19:32 94.7 °F 62.0 °F 29.83 in WNW 1.2 mph 1.2 mph 34 % 0.00 in
19:37 94.2 °F 62.4 °F 29.83 in WNW 1.2 mph   35 % 0.00 in
19:42 93.6 °F 61.8 °F 29.83 in Calm     35 % 0.00 in
19:47 93.1 °F 63.0 °F 29.83 in Calm     37 % 0.00 in
19:52 92.5 °F 61.7 °F 29.83 in Calm     36 % 0.00 in
19:57 92.0 °F 62.0 °F 29.83 in Calm     37 % 0.00 in
20:02 91.5 °F 62.3 °F 29.84 in Calm     38 % 0.00 in
20:07 90.9 °F 63.2 °F 29.84 in Calm     40 % 0.00 in
20:12 90.1 °F 63.2 °F 29.84 in Calm     41 % 0.00 in
20:17 89.5 °F 62.7 °F 29.84 in Calm     41 % 0.00 in
20:22 89.0 °F 63.6 °F 29.84 in Calm     43 % 0.00 in
20:27 88.3 °F 63.0 °F 29.84 in Calm     43 % 0.00 in
20:32 87.6 °F 63.6 °F 29.84 in Calm     45 % 0.00 in
20:37 87.0 °F 63.1 °F 29.85 in Calm     45 % 0.00 in
20:42 86.4 °F 63.8 °F 29.85 in Calm     47 % 0.00 in
20:47 86.0 °F 64.0 °F 29.85 in Calm     48 % 0.00 in
20:52 85.7 °F 64.9 °F 29.85 in Calm     50 % 0.00 in
20:57 85.4 °F 64.6 °F 29.85 in Calm     50 % 0.00 in
21:02 85.1 °F 63.8 °F 29.86 in Calm     49 % 0.00 in
21:08 84.7 °F 64.6 °F 29.86 in Calm     51 % 0.00 in
21:13 84.3 °F 66.9 °F 29.86 in Calm     56 % 0.00 in
21:18 83.8 °F 65.9 °F 29.86 in Calm     55 % 0.00 in
21:23 83.6 °F 66.8 °F 29.86 in Calm     57 % 0.00 in
21:24 83.6 °F 66.8 °F 29.86 in Calm     57 % 0.00 in
21:29 83.5 °F 66.7 °F 29.86 in Calm     57 % 0.00 in
21:34 83.4 °F 67.1 °F 29.87 in Calm     58 % 0.00 in
21:39 83.3 °F 65.4 °F 29.87 in Calm   0.1 mph 55 % 0.00 in
21:44 83.5 °F 66.2 °F 29.87 in Calm     56 % 0.00 in
21:49 83.7 °F 66.3 °F 29.87 in Calm     56 % 0.00 in
21:54 83.6 °F 66.2 °F 29.88 in Calm     56 % 0.00 in
21:59 83.3 °F 66.5 °F 29.88 in Calm     57 % 0.00 in
22:04 83.0 °F 65.2 °F 29.88 in WNW 1.2 mph   55 % 0.00 in
22:10 83.4 °F 66.1 °F 29.88 in Calm     56 % 0.00 in
22:15 83.1 °F 65.8 °F 29.88 in WNW 1.2 mph   56 % 0.00 in
22:20 82.6 °F 65.8 °F 29.88 in Calm     57 % 0.00 in
22:25 82.0 °F 66.3 °F 29.88 in Calm     59 % 0.00 in
22:30 81.4 °F 65.7 °F 29.88 in Calm     59 % 0.00 in
22:35 80.9 °F 65.2 °F 29.88 in Calm     59 % 0.00 in
22:40 81.0 °F 65.3 °F 29.87 in Calm     59 % 0.00 in
22:45 81.1 °F 65.4 °F 29.88 in Calm     59 % 0.00 in
22:50 81.0 °F 65.3 °F 29.88 in Calm     59 % 0.00 in
22:52 81.0 °F 65.3 °F 29.88 in Calm     59 % 0.00 in
22:57 81.3 °F 65.6 °F 29.88 in WNW 1.2 mph   59 % 0.00 in
23:02 81.4 °F 65.2 °F 29.88 in Calm     58 % 0.00 in
23:07 81.3 °F 65.1 °F 29.88 in Calm     58 % 0.00 in
23:12 81.3 °F 64.6 °F 29.88 in NNW 1.0 mph 1.0 mph 57 % 0.00 in
23:17 81.5 °F 64.3 °F 29.88 in Calm     56 % 0.00 in
23:22 81.3 °F 64.6 °F 29.88 in Calm     57 % 0.00 in
23:27 80.8 °F 64.1 °F 29.88 in Calm     57 % 0.00 in
23:32 80.3 °F 65.6 °F 29.88 in Calm     61 % 0.00 in
23:37 79.8 °F 65.2 °F 29.88 in Calm     61 % 0.00 in
23:42 79.5 °F 65.3 °F 29.88 in Calm     62 % 0.00 in
23:47 79.0 °F 65.3 °F 29.89 in Calm     63 % 0.00 in
23:52 78.4 °F 65.2 °F 29.89 in Calm     64 % 0.00 in
23:57 77.7 °F 64.5 °F 29.88 in Calm     64 % 0.00 in
Park Place, Exeter, Tulare County, California, USA
Compliments of Weather Underground - 2.75 mb